Estación de Monte Patria - Chilecito
Ultimos registro cada 15 minutos 49
| N° | Estación | Fecha / Hora | Temperatura | Humedad | Lluvia | Velocidad | Dirección | Radiación | Presion |
| 49 | Monte Patria - Chilecito | 04-05-2026 12:00 | 26,3 | 22,4 | 0 | 0 | 334 | 601,9 | 936,4 |
| 48 | Monte Patria - Chilecito | 04-05-2026 11:45 | 26 | 19,2 | 0 | 0 | 329 | 590,6 | 936,6 |
| 47 | Monte Patria - Chilecito | 04-05-2026 11:30 | 25,6 | 20,2 | 0 | 0 | 333 | 576,9 | 937 |
| 46 | Monte Patria - Chilecito | 04-05-2026 11:15 | 25,2 | 20,1 | 0 | 0 | 341 | 405,6 | 937,1 |
| 45 | Monte Patria - Chilecito | 04-05-2026 11:00 | 24,5 | 20,7 | 0 | 0 | 336 | 50,6 | 937,1 |
| 44 | Monte Patria - Chilecito | 04-05-2026 10:45 | 24,7 | 22,5 | 0 | 0 | 336 | 50,6 | 937 |
| 43 | Monte Patria - Chilecito | 04-05-2026 10:30 | 24,6 | 22,7 | 0 | 0 | 337 | 495,6 | 937,1 |
| 42 | Monte Patria - Chilecito | 04-05-2026 10:15 | 23,6 | 23,7 | 0 | 0 | 338 | 468,1 | 937,3 |
| 41 | Monte Patria - Chilecito | 04-05-2026 10:00 | 22,4 | 25,4 | 0 | 0 | 329 | 435,6 | 937,4 |
| 40 | Monte Patria - Chilecito | 04-05-2026 09:45 | 23,1 | 22,4 | 0 | 0 | 320 | 403,1 | 937,4 |
| 39 | Monte Patria - Chilecito | 04-05-2026 09:30 | 22,2 | 24,6 | 0 | 0 | 320 | 314,4 | 937,5 |
| 38 | Monte Patria - Chilecito | 04-05-2026 09:15 | 21,5 | 28 | 0 | 0 | 316 | 43,1 | 937,7 |
| 37 | Monte Patria - Chilecito | 04-05-2026 09:00 | 21 | 29,3 | 0 | 0 | 302 | 56,9 | 937,7 |
| 36 | Monte Patria - Chilecito | 04-05-2026 08:45 | 20,4 | 29,2 | 0 | 0 | 302 | 39,4 | 937,9 |
| 35 | Monte Patria - Chilecito | 04-05-2026 08:30 | 16,2 | 37,6 | 0 | 0 | 302 | 168,1 | 937,9 |
| 34 | Monte Patria - Chilecito | 04-05-2026 08:15 | 15,2 | 39,2 | 0 | 0 | 302 | 170,6 | 937,9 |
| 33 | Monte Patria - Chilecito | 04-05-2026 08:00 | 12,3 | 41,8 | 0 | 0 | 302 | 10,6 | 937,8 |
| 32 | Monte Patria - Chilecito | 04-05-2026 07:45 | 13,1 | 38,5 | 0 | 0 | 307 | 8,1 | 937,8 |
| 31 | Monte Patria - Chilecito | 04-05-2026 07:30 | 11,5 | 42,4 | 0 | 0 | 327 | 4,4 | 937,7 |
| 30 | Monte Patria - Chilecito | 04-05-2026 07:15 | 12,2 | 42 | 0 | 0 | 327 | 1,9 | 937,7 |
| 29 | Monte Patria - Chilecito | 04-05-2026 07:00 | 13,2 | 38,4 | 0 | 0 | 327 | 0,6 | 937,5 |
| 28 | Monte Patria - Chilecito | 04-05-2026 06:45 | 13,1 | 39,4 | 0 | 0 | 327 | 0,6 | 937,4 |
| 27 | Monte Patria - Chilecito | 04-05-2026 06:30 | 12,7 | 41,4 | 0 | 0 | 327 | 0,6 | 937,4 |
| 26 | Monte Patria - Chilecito | 04-05-2026 06:15 | 12 | 45,5 | 0 | 0 | 327 | 0,6 | 937,3 |
| 25 | Monte Patria - Chilecito | 04-05-2026 06:00 | 12 | 45,1 | 0 | 0 | 327 | 0,6 | 937,1 |
| 24 | Monte Patria - Chilecito | 04-05-2026 05:45 | 12,9 | 44,4 | 0 | 0 | 327 | 0,6 | 937 |
| 23 | Monte Patria - Chilecito | 04-05-2026 05:30 | 12,5 | 45,6 | 0 | 0 | 327 | 0,6 | 936,9 |
| 22 | Monte Patria - Chilecito | 04-05-2026 05:15 | 13,4 | 42,1 | 0 | 0 | 327 | 0,6 | 937 |
| 21 | Monte Patria - Chilecito | 04-05-2026 05:00 | 13,5 | 42,7 | 0 | 0 | 327 | 0,6 | 936,9 |
| 20 | Monte Patria - Chilecito | 04-05-2026 04:45 | 13 | 45,8 | 0 | 0 | 327 | 0,6 | 937 |
| 19 | Monte Patria - Chilecito | 04-05-2026 04:30 | 13,4 | 45 | 0 | 0 | 327 | 0,6 | 937 |
| 18 | Monte Patria - Chilecito | 04-05-2026 04:15 | 13,7 | 44,3 | 0 | 0 | 327 | 0,6 | 937,1 |
| 17 | Monte Patria - Chilecito | 04-05-2026 04:00 | 13,8 | 43,8 | 0 | 0 | 327 | 0,6 | 937 |
| 16 | Monte Patria - Chilecito | 04-05-2026 03:45 | 14,4 | 43,9 | 0 | 0 | 327 | 0,6 | 937,1 |
| 15 | Monte Patria - Chilecito | 04-05-2026 03:30 | 13,6 | 46,1 | 0 | 0 | 327 | 0,6 | 937,1 |
| 14 | Monte Patria - Chilecito | 04-05-2026 03:15 | 13,1 | 50,1 | 0 | 0 | 327 | 0,6 | 937,1 |
| 13 | Monte Patria - Chilecito | 04-05-2026 03:00 | 13,6 | 47,8 | 0 | 0 | 327 | 0,6 | 937,2 |
| 12 | Monte Patria - Chilecito | 04-05-2026 02:45 | 13,2 | 50,9 | 0 | 0 | 327 | 0,6 | 937,1 |
| 11 | Monte Patria - Chilecito | 04-05-2026 02:30 | 13,3 | 50,3 | 0 | 0 | 327 | 0,6 | 937,3 |
| 10 | Monte Patria - Chilecito | 04-05-2026 02:15 | 13,9 | 48,1 | 0 | 0 | 327 | 0,6 | 937,3 |
| 9 | Monte Patria - Chilecito | 04-05-2026 02:00 | 13,8 | 49,2 | 0 | 0 | 327 | 0,6 | 937,5 |
| 8 | Monte Patria - Chilecito | 04-05-2026 01:45 | 13,9 | 48,3 | 0 | 0 | 327 | 0,6 | 937,6 |
| 7 | Monte Patria - Chilecito | 04-05-2026 01:30 | 13,9 | 48,6 | 0 | 0 | 327 | 0,6 | 937,7 |
| 6 | Monte Patria - Chilecito | 04-05-2026 01:15 | 14,1 | 48,1 | 0 | 0 | 327 | 0,6 | 937,8 |
| 5 | Monte Patria - Chilecito | 04-05-2026 01:00 | 13,6 | 50,9 | 0 | 0 | 327 | 0,6 | 937,9 |
| 4 | Monte Patria - Chilecito | 04-05-2026 00:45 | 13,8 | 51,3 | 0 | 0 | 327 | 0,6 | 937,9 |
| 3 | Monte Patria - Chilecito | 04-05-2026 00:30 | 13,8 | 51,1 | 0 | 0 | 327 | 0,6 | 938 |
| 2 | Monte Patria - Chilecito | 04-05-2026 00:15 | 13,5 | 53,7 | 0 | 0 | 327 | 0,6 | 938,1 |
| 1 | Monte Patria - Chilecito | 04-05-2026 00:00 | 14,4 | 50,5 | 0 | 0 | 327 | 0,6 | 937,9 |